Measurements were made at the meteorological tower in Juelich (50.90 N / 6.40 E) at an altitude of 100 m,
"Instrument: Fast Greenhouse Gas Analyzer (FGGA), Los Gatos Inc.",
Responsible PI: Dr. Marc von Hobe; Forschungszentrum Juelich GmbH; IEK-7; email: m.von.hobe@fz-juelich.de,
NaN or negative numbers are fill values (i.e. no valid measurements were made at that time),
Uncertainties are given as the 1-sigma standard deviation over each 10 minute intervals. In each interval ~600 individual measurements are carried out so that the standard error of the mean is approximately sigma/sqrt(600).,
time_utc,CO2_ppm,stdev_CO2_ppm,CH4_ppm,stdev_CH4_ppm,H2O_ppm,stdev_H2O_ppm
"2016-04-01 00:05:00 000",410.938,1.11706,1.94090,0.00482936,6959.72,176.157
"2016-04-01 00:15:00 000",411.562,1.13742,1.93979,0.00473266,6875.88,185.680
"2016-04-01 00:25:00 000",412.154,1.30534,1.93961,0.00498217,6839.67,166.659
"2016-04-01 00:35:00 000",415.298,2.40326,1.93926,0.00469932,6822.04,176.202
"2016-04-01 00:45:00 000",417.322,1.53838,1.93974,0.00506317,6809.54,169.428
"2016-04-01 00:55:00 000",413.885,2.01687,1.94122,0.00442717,6817.30,167.867
"2016-04-01 01:05:00 000",409.151,1.07113,1.94232,0.00456416,6749.11,160.677
"2016-04-01 01:15:00 000",410.099,1.05932,1.94606,0.00514133,6711.17,149.863
"2016-04-01 01:25:00 000",411.540,1.10003,1.95072,0.00477411,6779.88,155.580
"2016-04-01 01:35:00 000",411.335,0.888479,1.95479,0.00419643,6854.71,133.400
"2016-04-01 01:45:00 000",411.916,0.977688,1.95745,0.00444304,6883.26,132.897
"2016-04-01 01:55:00 000",412.248,0.884111,1.95838,0.00411108,6969.48,111.949
"2016-04-01 02:05:00 000",412.349,0.955515,1.96299,0.00641829,6954.32,108.498
"2016-04-01 02:15:00 000",413.813,1.00317,1.97456,0.00681659,6999.19,111.145
"2016-04-01 02:25:00 000",413.876,0.880021,1.97955,0.00572457,7031.23,104.456
"2016-04-01 02:35:00 000",414.406,0.973669,1.98590,0.00616698,6996.80,115.060
"2016-04-01 02:45:00 000",415.307,0.997564,1.99532,0.00839843,6903.96,108.203
"2016-04-01 02:55:00 000",415.941,0.984275,2.00255,0.00749997,6910.76,114.215
"2016-04-01 03:05:00 000",417.258,0.936947,2.00887,0.00508055,6912.66,121.786
"2016-04-01 03:15:00 000",417.182,0.998326,2.01732,0.00835971,6927.62,120.161
"2016-04-01 03:25:00 000",415.809,1.04382,2.02848,0.00559823,6918.70,125.567
"2016-04-01 03:35:00 000",415.566,0.932820,2.02942,0.00483709,6947.72,138.481
"2016-04-01 03:45:00 000",415.742,1.03744,2.02655,0.00440456,6982.20,146.177
"2016-04-01 03:55:00 000",415.636,0.968309,2.03063,0.00500047,6932.11,159.150
"2016-04-01 04:05:00 000",415.465,0.950331,2.03521,0.00537814,6942.28,167.648
"2016-04-01 04:15:00 000",415.325,0.888656,2.04159,0.00547863,6923.69,156.604
"2016-04-01 04:25:00 000",414.873,0.926859,2.04560,0.00507459,6914.16,173.177
"2016-04-01 04:35:00 000",415.046,0.943758,2.04552,0.00493195,6912.09,168.578
"2016-04-01 04:45:00 000",415.833,1.32705,2.04384,0.00609057,6868.73,169.707
"2016-04-01 04:55:00 000",414.254,0.996851,2.04420,0.00516769,6923.87,179.032
"2016-04-01 05:05:00 000",414.116,0.968044,2.03828,0.00504674,6889.95,172.548
"2016-04-01 05:15:00 000",413.777,0.939333,2.03653,0.00533110,6915.42,173.912
"2016-04-01 05:25:00 000",413.644,0.921044,2.03904,0.00668134,6897.48,186.498
"2016-04-01 05:35:00 000",414.460,1.02466,2.02464,0.0111256,6903.65,200.209
"2016-04-01 05:45:00 000",415.457,0.939517,2.03641,0.00914319,6840.59,204.126
"2016-04-01 05:55:00 000",417.212,1.05738,2.05720,0.00587285,6819.44,202.368
"2016-04-01 06:05:00 000",417.239,1.01054,2.04732,0.00665333,6974.45,198.236
"2016-04-01 06:15:00 000",417.761,1.07570,2.05006,0.00640002,7007.18,192.944
"2016-04-01 06:25:00 000",418.836,1.11785,2.05357,0.00584029,6952.58,204.914
"2016-04-01 06:35:00 000",419.142,1.01054,2.05599,0.00512047,6921.06,179.530
"2016-04-01 06:45:00 000",419.116,1.01440,2.05999,0.00518913,6727.75,215.791
"2016-04-01 06:55:00 000",419.625,0.877681,2.06009,0.00490527,6629.93,167.352
"2016-04-01 07:05:00 000",420.403,0.947721,2.05570,0.00586067,6705.19,173.271
"2016-04-01 07:15:00 000",418.129,1.35091,2.03212,0.0104524,6970.29,203.679
"2016-04-01 07:25:00 000",418.277,1.12396,2.03241,0.00811712,7012.82,190.864
"2016-04-01 07:35:00 000",419.137,1.48416,2.04324,0.00826631,7168.97,197.643
"2016-04-01 07:45:00 000",419.827,1.45264,2.04624,0.0111708,7340.46,161.058
"2016-04-01 07:55:00 000",417.221,2.74904,2.01925,0.0270578,7281.70,166.450
"2016-04-01 08:05:00 000",414.127,1.96157,1.99595,0.0165214,6954.52,105.320
"2016-04-01 08:15:00 000",411.113,2.34055,1.97077,0.0205632,6764.23,236.470
"2016-04-01 08:25:00 000",412.025,1.79815,1.97970,0.0177670,6760.60,114.629
"2016-04-01 08:35:00 000",413.662,0.999157,1.98233,0.00587576,6658.95,102.049
"2016-04-01 08:45:00 000",410.794,2.07568,1.95886,0.0127904,6347.58,159.789
"2016-04-01 08:55:00 000",408.232,2.73426,1.94429,0.0155654,5883.39,224.246
"2016-04-01 09:05:00 000",410.890,1.51905,1.96656,0.0106002,6260.99,153.287
"2016-04-01 09:15:00 000",409.243,1.33358,1.95862,0.00816005,6237.16,166.137
"2016-04-01 09:25:00 000",411.563,1.28637,1.97229,0.00771659,6338.01,151.421
"2016-04-01 09:35:00 000",410.490,1.00861,1.96874,0.00632816,6418.27,129.623
"2016-04-01 09:45:00 000",411.077,0.887328,1.97608,0.00481297,6427.65,89.6081
"2016-04-01 09:55:00 000",410.521,0.916221,1.96926,0.00677591,6504.89,109.764
"2016-04-01 10:05:00 000",409.393,0.976709,1.95955,0.00688217,6419.53,167.652
"2016-04-01 10:15:00 000",408.803,0.898222,1.95319,0.00482635,6277.66,115.146
"2016-04-01 10:25:00 000",406.897,0.836983,1.93878,0.00374946,6004.00,114.256
"2016-04-01 10:35:00 000",406.219,0.872863,1.93420,0.00392315,6270.04,130.176
"2016-04-01 10:45:00 000",405.311,0.878362,1.93262,0.00364247,6014.85,104.366
"2016-04-01 10:55:00 000",404.763,0.803456,1.93238,0.00389445,6166.90,104.176
"2016-04-01 11:05:00 000",404.345,0.948047,1.92610,0.00406497,5955.93,106.293
"2016-04-01 11:15:00 000",404.500,0.857292,1.93022,0.00391887,6064.91,90.8031
"2016-04-01 11:25:00 000",404.514,0.811234,1.92818,0.00431243,6040.14,106.329
"2016-04-01 11:35:00 000",403.506,0.898920,1.92433,0.00409172,5993.62,122.023
"2016-04-01 11:45:00 000",404.733,0.876641,1.92946,0.00393114,6013.43,96.6523
"2016-04-01 11:55:00 000",403.881,1.12556,1.92817,0.00433757,6054.52,153.147
"2016-04-01 12:05:00 000",403.148,0.903119,1.92647,0.00419414,5874.78,97.1853
"2016-04-01 12:15:00 000",404.193,0.861333,1.92417,0.00393633,5813.55,95.1332
"2016-04-01 12:25:00 000",404.028,0.825685,1.92212,0.00389990,5779.35,91.7188
"2016-04-01 12:35:00 000",404.251,0.810434,1.92376,0.00382882,5794.09,94.4364
"2016-04-01 12:45:00 000",404.245,0.796309,1.92482,0.00369278,5816.05,92.7601
"2016-04-01 12:55:00 000",404.335,0.825669,1.92377,0.00369185,5817.12,89.0663
"2016-04-01 13:05:00 000",404.469,0.851538,1.92390,0.00391104,5898.56,95.9637
"2016-04-01 13:15:00 000",404.356,0.844539,1.92817,0.00426419,5970.38,84.6507
"2016-04-01 13:25:00 000",403.730,0.865671,1.93031,0.00394436,5977.27,99.4175
"2016-04-01 13:35:00 000",403.711,0.800936,1.92833,0.00383479,5917.42,122.620
"2016-04-01 13:45:00 000",403.384,0.884228,1.92789,0.00390282,5880.28,102.907
"2016-04-01 13:55:00 000",402.774,0.888322,1.92717,0.00382217,5940.61,95.3754
"2016-04-01 14:05:00 000",402.682,0.990673,1.92529,0.00386211,6000.47,98.3130
"2016-04-01 14:15:00 000",402.935,1.10805,1.92865,0.00455295,6039.85,110.422
"2016-04-01 14:25:00 000",403.448,0.825164,1.92981,0.00414352,5979.40,99.2081
"2016-04-01 14:35:00 000",402.319,1.33084,1.92796,0.00430647,5975.52,164.065
"2016-04-01 14:45:00 000",401.443,0.882515,1.92350,0.00393907,6049.12,116.234
"2016-04-01 14:55:00 000",401.153,0.787608,1.92229,0.00409473,6029.79,120.843
"2016-04-01 15:05:00 000",401.280,0.825324,1.92192,0.00421732,5947.98,119.737
"2016-04-01 15:15:00 000",400.759,0.825569,1.92007,0.00358966,6027.65,100.580
"2016-04-01 15:25:00 000",400.671,0.846973,1.91908,0.00406188,5995.56,93.7329
"2016-04-01 15:35:00 000",400.225,0.805319,1.91887,0.00389277,6013.99,111.327
"2016-04-01 15:45:00 000",400.549,0.866089,1.92087,0.00408650,5888.57,141.289
"2016-04-01 15:55:00 000",400.499,0.848124,1.91896,0.00402660,5903.07,132.525
"2016-04-01 16:05:00 000",400.613,0.803151,1.91801,0.00395763,5854.82,110.575
"2016-04-01 16:15:00 000",400.742,0.848398,1.91849,0.00366264,5948.77,105.890
"2016-04-01 16:25:00 000",401.095,0.817686,1.91980,0.00395404,5900.55,101.167
"2016-04-01 16:35:00 000",400.803,0.837978,1.91929,0.00365004,5938.72,92.7679
"2016-04-01 16:45:00 000",400.497,0.830055,1.91995,0.00411598,6035.87,109.843
"2016-04-01 16:55:00 000",400.187,0.852663,1.91900,0.00411608,5936.45,106.829
"2016-04-01 17:05:00 000",400.466,0.879072,1.91838,0.00402501,5900.01,100.636
"2016-04-01 17:15:00 000",400.258,0.808408,1.91787,0.00380382,5934.89,96.0783
"2016-04-01 17:25:00 000",399.991,0.833734,1.91904,0.00361542,6090.04,103.038
"2016-04-01 17:35:00 000",400.207,0.903232,1.92048,0.00401792,6129.41,113.565
"2016-04-01 17:45:00 000",400.587,0.788662,1.91952,0.00397948,6262.91,105.470
"2016-04-01 17:55:00 000",400.965,0.852150,1.92039,0.00400742,6380.90,101.298
"2016-04-01 18:05:00 000",401.122,0.836915,1.91897,0.00395675,6418.24,87.7687
"2016-04-01 18:15:00 000",401.459,0.824074,1.91806,0.00374323,6460.31,91.7740
"2016-04-01 18:25:00 000",401.749,0.826811,1.91784,0.00387768,6557.09,93.8707
"2016-04-01 18:35:00 000",401.924,0.827226,1.91739,0.00394817,6606.73,86.9835
"2016-04-01 18:45:00 000",401.848,0.914836,1.91668,0.00392488,6632.12,86.3143
"2016-04-01 18:55:00 000",401.713,0.890049,1.91602,0.00382541,6598.17,82.4575
"2016-04-01 19:05:00 000",401.352,1.00845,1.91469,0.00370994,6503.79,89.7110
"2016-04-01 19:15:00 000",402.047,1.07524,1.91583,0.00393878,6573.61,89.6891
"2016-04-01 19:25:00 000",401.752,1.05980,1.91999,0.00546006,6525.52,86.7965
"2016-04-01 19:35:00 000",401.172,1.00549,1.91615,0.00370476,6448.02,90.1286
"2016-04-01 19:45:00 000",401.514,0.979247,1.91641,0.00391556,6526.29,82.0165
"2016-04-01 19:55:00 000",402.744,0.902544,1.92064,0.00457255,6593.72,82.1723
"2016-04-01 20:05:00 000",403.143,0.946443,1.92281,0.00471949,6566.06,87.9105
"2016-04-01 20:15:00 000",402.219,0.891410,1.92022,0.00385849,6437.78,85.3285
"2016-04-01 20:25:00 000",402.117,0.903921,1.92020,0.00389099,6409.94,79.6669
"2016-04-01 20:35:00 000",403.056,1.32241,1.92147,0.00406424,6420.36,82.0645
"2016-04-01 20:45:00 000",402.800,1.62322,1.91965,0.00488169,6366.97,82.7494
"2016-04-01 20:55:00 000",401.820,0.861196,1.91897,0.00386045,6353.86,82.3927
"2016-04-01 21:05:00 000",401.664,0.968287,1.91898,0.00436967,6358.42,80.5893
"2016-04-01 21:15:00 000",405.810,1.90236,1.93134,0.00604920,6570.79,127.500
"2016-04-01 21:25:00 000",406.206,1.07681,1.93320,0.00537071,6683.90,90.9958
"2016-04-01 21:35:00 000",405.291,1.09302,1.92766,0.00425683,6596.70,85.2391
"2016-04-01 21:45:00 000",404.901,2.19224,1.92395,0.00568710,6491.31,92.8847
"2016-04-01 21:55:00 000",403.027,2.41358,1.92056,0.00729300,6411.24,81.9494
"2016-04-01 22:05:00 000",404.430,1.08154,1.96044,0.0160101,6514.41,98.5566
"2016-04-01 22:15:00 000",404.711,1.01083,1.95997,0.00811524,6529.73,80.4986
"2016-04-01 22:25:00 000",404.948,0.887498,1.96335,0.0121651,6522.39,86.0894
"2016-04-01 22:35:00 000",405.764,1.02800,1.94610,0.00872833,6627.12,95.1281
"2016-04-01 22:45:00 000",404.991,0.995833,1.94484,0.00431384,6589.69,92.5707
"2016-04-01 22:55:00 000",405.783,1.00186,1.94599,0.00489161,6597.09,85.2930
"2016-04-01 23:05:00 000",407.954,1.02089,1.95993,0.00510842,6662.80,94.8805
"2016-04-01 23:15:00 000",409.360,1.00450,1.97538,0.00767836,6760.78,97.4131
"2016-04-01 23:25:00 000",411.406,1.05401,1.99136,0.00644575,6834.05,96.9433
"2016-04-01 23:35:00 000",412.679,0.895860,1.98474,0.00690954,6897.78,87.1841
"2016-04-01 23:45:00 000",413.518,1.20506,1.98405,0.00825402,6985.77,88.5663
"2016-04-01 23:55:00 000",414.137,1.11533,1.95987,0.00704466,7018.94,80.2654
"2016-04-02 00:05:00 000",415.571,0.900932,1.95567,0.00455861,7083.37,85.9398
"2016-04-02 00:15:00 000",416.112,0.882488,1.95831,0.00569631,7140.04,79.8831
"2016-04-02 00:25:00 000",415.672,1.10247,1.95612,0.00683787,7171.61,78.1544
"2016-04-02 00:35:00 000",415.158,0.996640,1.95871,0.00543573,7172.24,80.0736
"2016-04-02 00:45:00 000",415.345,1.05662,1.96538,0.00652040,7157.91,81.0828
"2016-04-02 00:55:00 000",415.856,0.994512,1.96889,0.00447775,7192.19,80.6366
"2016-04-02 01:05:00 000",416.133,1.05891,1.96878,0.00470399,7205.79,84.7729
"2016-04-02 01:15:00 000",415.814,1.23503,1.97194,0.00419409,7231.72,84.8833
"2016-04-02 01:25:00 000",414.894,1.12338,1.97378,0.00420283,7206.19,78.9992
"2016-04-02 01:35:00 000",413.932,1.13514,1.97424,0.00460519,7213.83,82.7313
"2016-04-02 01:45:00 000",413.257,1.10573,1.97129,0.00443768,7214.70,81.8146
"2016-04-02 01:55:00 000",412.094,0.991665,1.96992,0.00498088,7160.83,90.1681
"2016-04-02 02:05:00 000",412.967,0.960787,1.97337,0.00494430,7124.84,88.0002
"2016-04-02 02:15:00 000",413.338,0.916246,1.97325,0.00431287,7175.32,81.5109
"2016-04-02 02:25:00 000",412.847,1.04538,1.97137,0.00489255,7218.64,83.6513
"2016-04-02 02:35:00 000",412.985,0.895837,1.97563,0.00481629,7215.53,83.9465
"2016-04-02 02:45:00 000",413.145,0.923654,1.97310,0.00622613,7231.76,84.7440
"2016-04-02 02:55:00 000",413.389,0.914836,1.97014,0.00495977,7215.61,82.1514
"2016-04-02 03:05:00 000",413.461,0.886774,1.96786,0.00479056,7247.26,85.9704
"2016-04-02 03:15:00 000",413.863,0.921785,1.96873,0.00428375,7272.26,86.6069
"2016-04-02 03:25:00 000",414.082,0.924164,1.96864,0.00433868,7303.74,81.7841
"2016-04-02 03:35:00 000",414.220,0.855080,1.96760,0.00439106,7335.60,79.0309
"2016-04-02 03:45:00 000",413.965,0.865124,1.96710,0.00413475,7356.04,85.9823
"2016-04-02 03:55:00 000",413.807,0.871288,1.96392,0.00402924,7373.85,81.9204
"2016-04-02 04:05:00 000",413.995,0.952132,1.96584,0.00447618,7366.27,95.6281
"2016-04-02 04:15:00 000",413.826,0.874924,1.96536,0.00525580,7390.10,81.4969
"2016-04-02 04:25:00 000",413.627,0.893584,1.96830,0.00398139,7396.88,86.0017
"2016-04-02 04:35:00 000",413.670,0.885956,1.96858,0.00453259,7423.07,81.7484
"2016-04-02 04:45:00 000",413.915,0.914656,1.97286,0.00430361,7421.79,84.7350
"2016-04-02 04:55:00 000",414.321,0.882678,1.97598,0.00443745,7429.75,82.8544
"2016-04-02 05:05:00 000",414.543,0.894283,1.97639,0.00446786,7478.37,86.1373
"2016-04-02 05:15:00 000",414.673,0.858009,1.96929,0.00444323,7520.09,85.5206
"2016-04-02 05:25:00 000",414.866,0.873294,1.97265,0.00510866,7544.61,80.5585
"2016-04-02 05:35:00 000",415.170,0.905147,1.97475,0.00410817,7557.81,84.6756
"2016-04-02 05:45:00 000",415.767,0.895846,1.97728,0.00487493,7531.34,79.3588
"2016-04-02 05:55:00 000",416.417,0.994186,1.97724,0.00428749,7581.96,80.9695
"2016-04-02 06:05:00 000",416.003,0.877396,1.97387,0.00401310,7561.75,81.3767
"2016-04-02 06:15:00 000",415.506,0.883886,1.97216,0.00380984,7519.52,81.8216
"2016-04-02 06:25:00 000",415.156,0.869740,1.96942,0.00414938,7477.21,83.3265
"2016-04-02 06:35:00 000",415.134,1.05372,1.96895,0.00405442,7445.52,80.4947
"2016-04-02 06:45:00 000",415.376,1.03152,1.96914,0.00445778,7447.82,80.1762
"2016-04-02 06:55:00 000",415.397,1.13991,1.97117,0.00624252,7388.50,108.809
"2016-04-02 07:05:00 000",415.512,1.06926,1.97462,0.00609797,7385.30,92.5564
"2016-04-02 07:15:00 000",416.301,0.866698,1.98387,0.00548117,7431.25,88.0304
"2016-04-02 07:25:00 000",416.542,0.893145,1.98818,0.00609848,7495.06,95.5054
"2016-04-02 07:35:00 000",416.637,0.857317,1.99447,0.00605514,7514.80,88.4345
"2016-04-02 07:45:00 000",416.619,0.875735,2.00061,0.00425788,7652.10,92.1474
"2016-04-02 07:55:00 000",416.584,0.897396,2.00223,0.00434503,7704.23,81.8554
"2016-04-02 08:05:00 000",416.556,0.850748,1.99536,0.00671807,7783.22,85.1627
"2016-04-02 08:15:00 000",416.116,0.936716,1.98197,0.00641992,7779.55,87.5027
"2016-04-02 08:25:00 000",415.002,0.938104,1.97461,0.00569419,7881.99,87.4095
"2016-04-02 08:35:00 000",414.454,0.891316,1.97022,0.00392754,7894.73,102.624
"2016-04-02 08:45:00 000",413.378,0.871345,1.96680,0.00436878,7940.74,102.913
"2016-04-02 08:55:00 000",412.340,0.952912,1.96684,0.00725214,7757.93,96.5099
"2016-04-02 09:05:00 000",411.261,1.06976,1.96445,0.00726024,7731.33,101.954
"2016-04-02 09:15:00 000",408.734,1.27520,1.94910,0.00851227,7678.86,175.802
"2016-04-02 09:25:00 000",409.437,1.15217,1.95836,0.0109545,7534.22,106.512
"2016-04-02 09:35:00 000",409.274,1.50006,1.95919,0.0137689,7267.09,197.901
"2016-04-02 09:45:00 000",408.697,0.969820,1.95522,0.00784319,7061.69,120.498
"2016-04-02 09:55:00 000",408.921,0.971185,1.95835,0.00650142,7265.83,123.480
"2016-04-02 10:05:00 000",408.576,0.884460,1.95713,0.00515029,7289.43,124.413
"2016-04-02 10:15:00 000",408.564,0.882581,1.95718,0.00566512,7266.94,136.456
"2016-04-02 10:25:00 000",408.339,0.840960,1.95957,0.00523631,7409.46,151.858
"2016-04-02 10:35:00 000",407.965,1.00087,1.95683,0.00540272,7284.80,138.036
"2016-04-02 10:45:00 000",406.217,0.888167,1.94582,0.00480909,7256.26,133.017
"2016-04-02 10:55:00 000",406.086,0.866815,1.94607,0.00429521,7421.25,134.209
"2016-04-02 11:05:00 000",405.702,0.839393,1.94473,0.00430188,7360.09,138.130
"2016-04-02 11:15:00 000",405.602,0.872381,1.94657,0.00446228,7340.00,132.828
"2016-04-02 11:25:00 000",405.912,0.947397,1.95312,0.00544593,7472.77,146.782
"2016-04-02 11:35:00 000",406.283,0.880724,1.95670,0.00502050,7508.46,145.338
"2016-04-02 11:45:00 000",405.800,0.939436,1.95414,0.00566205,7481.19,144.536
"2016-04-02 11:55:00 000",405.702,0.951057,1.95806,0.00483972,7575.89,145.275
"2016-04-02 12:05:00 000",405.542,0.889437,1.94729,0.00594718,7540.96,132.479
"2016-04-02 12:15:00 000",406.127,0.928686,1.94645,0.00477792,7494.43,127.908
"2016-04-02 12:25:00 000",406.183,0.948686,1.95062,0.00547543,7521.61,128.548
"2016-04-02 12:35:00 000",406.466,1.01048,1.95815,0.00583674,7537.37,126.270
"2016-04-02 12:45:00 000",407.122,1.03956,1.96504,0.00645445,7567.24,131.135
"2016-04-02 12:55:00 000",406.059,0.970564,1.94943,0.00559571,7667.95,115.585
"2016-04-02 13:05:00 000",405.805,0.930066,1.94849,0.00470568,7673.02,124.243
"2016-04-02 13:15:00 000",405.574,0.916839,1.94450,0.00462547,7691.37,124.219
"2016-04-02 13:25:00 000",405.382,0.889127,1.94291,0.00447936,7663.49,125.417
"2016-04-02 13:35:00 000",404.598,0.901956,1.94072,0.00428979,7709.24,125.360
"2016-04-02 13:45:00 000",404.351,0.906139,1.94199,0.00447716,7658.42,113.503
"2016-04-02 13:55:00 000",404.297,0.947521,1.93987,0.00434446,7672.15,118.583
"2016-04-02 14:05:00 000",404.227,0.947537,1.94282,0.00502316,7714.22,114.785
"2016-04-02 14:15:00 000",405.307,0.969852,1.95859,0.00597119,7718.66,122.180
"2016-04-02 14:25:00 000",405.144,0.904681,1.95964,0.00603154,7782.81,115.551
"2016-04-02 14:35:00 000",405.437,0.976400,1.96442,0.00460888,7742.41,118.008
"2016-04-02 14:45:00 000",404.944,0.866703,1.95322,0.00666157,7771.53,112.738
"2016-04-02 14:55:00 000",405.125,0.890116,1.95570,0.00570507,7842.03,110.190
"2016-04-02 15:05:00 000",405.421,0.909385,1.97430,0.00677069,7894.59,117.907
"2016-04-02 15:15:00 000",405.479,0.916501,1.98326,0.00514625,7999.27,117.460
"2016-04-02 15:25:00 000",404.823,0.985109,1.96338,0.0109778,8121.18,119.771
"2016-04-02 15:35:00 000",405.116,0.948222,1.95472,0.00484387,8176.69,110.395
"2016-04-02 15:45:00 000",405.136,0.996055,1.96062,0.00471774,8248.30,110.054
"2016-04-02 15:55:00 000",405.583,0.957530,1.96322,0.00559194,8314.52,123.356
"2016-04-02 16:05:00 000",405.702,0.938968,1.95490,0.00446183,8363.53,118.389
"2016-04-02 16:15:00 000",406.210,1.03600,1.95802,0.00512431,8291.56,115.728
"2016-04-02 16:25:00 000",406.445,0.879052,1.96018,0.00486098,8306.42,110.172
"2016-04-02 16:35:00 000",406.654,0.924913,1.95365,0.00514294,8258.51,120.817
"2016-04-02 16:45:00 000",406.705,0.892373,1.95447,0.00491787,8305.59,119.577
"2016-04-02 16:55:00 000",406.505,0.910328,1.95845,0.00584121,8354.55,116.906
"2016-04-02 17:05:00 000",406.059,0.881950,1.95641,0.00477257,8350.42,121.525
"2016-04-02 17:15:00 000",405.883,0.915875,1.95613,0.00459665,8377.71,119.806
"2016-04-02 17:25:00 000",406.032,0.909929,1.96045,0.00477859,8480.04,122.149
"2016-04-02 17:35:00 000",406.405,0.892328,1.96906,0.00530130,8509.15,123.627
"2016-04-02 17:45:00 000",406.352,0.960663,1.97153,0.00563528,8574.49,119.232
"2016-04-02 17:55:00 000",406.482,0.970937,1.97347,0.00552512,8615.41,131.390
"2016-04-02 18:05:00 000",406.290,0.942732,1.97215,0.00580400,8641.17,127.065
"2016-04-02 18:15:00 000",406.817,0.948988,1.97618,0.00494215,8705.35,125.909
"2016-04-02 18:25:00 000",406.944,1.00224,1.97517,0.00563800,8757.45,124.128
"2016-04-02 18:35:00 000",406.129,0.934539,1.97471,0.00496066,8733.06,124.633
"2016-04-02 18:45:00 000",406.689,0.883965,1.97694,0.00540860,8779.98,120.995
"2016-04-02 18:55:00 000",406.511,0.870755,1.96704,0.00487765,8847.19,121.105
"2016-04-02 19:05:00 000",406.706,0.922257,1.96621,0.00471254,8810.82,121.975
"2016-04-02 19:15:00 000",407.858,1.05740,1.96997,0.00483316,8875.24,124.655
"2016-04-02 19:25:00 000",408.894,0.943799,1.97523,0.00441432,8957.56,129.473
"2016-04-02 19:35:00 000",408.404,0.960976,1.97498,0.00511975,9053.95,122.349
"2016-04-02 19:45:00 000",408.221,0.927277,1.97935,0.00523647,9117.37,119.689
"2016-04-02 19:55:00 000",408.859,0.917690,1.97937,0.00504445,9118.64,119.847
"2016-04-02 20:05:00 000",409.173,0.954224,1.97880,0.00465682,9177.13,118.503
"2016-04-02 20:15:00 000",408.408,1.01909,1.97692,0.00587931,9168.00,119.787
"2016-04-02 20:25:00 000",408.669,1.01107,1.97990,0.00577616,9123.39,119.407
"2016-04-02 20:35:00 000",409.664,0.920683,1.98193,0.00511383,9115.18,120.349
"2016-04-02 20:45:00 000",410.289,0.883901,1.98320,0.00467786,9109.90,118.121
"2016-04-02 20:55:00 000",410.585,0.923403,1.98333,0.00489360,9080.96,119.677
"2016-04-02 21:05:00 000",411.046,0.915400,1.98877,0.00680917,9089.57,117.481
"2016-04-02 21:15:00 000",411.516,0.932904,1.99460,0.00609181,9105.23,110.065
"2016-04-02 21:25:00 000",412.241,0.890025,1.99644,0.00472426,9142.16,114.069
"2016-04-02 21:35:00 000",412.515,0.914162,1.99977,0.00554240,9159.65,113.416
"2016-04-02 21:45:00 000",413.490,0.991939,2.00130,0.00495316,9164.21,109.351
"2016-04-02 21:55:00 000",413.427,1.02568,1.99342,0.00588295,9158.23,112.126
"2016-04-02 22:05:00 000",413.523,0.922786,1.98963,0.00493457,9179.10,111.275
"2016-04-02 22:15:00 000",413.364,0.924895,1.98947,0.00582728,9205.68,121.506
"2016-04-02 22:25:00 000",412.751,0.903644,1.98973,0.00506091,9215.31,110.426
"2016-04-02 22:35:00 000",412.058,0.937026,1.98751,0.00561497,9235.71,115.449
"2016-04-02 22:45:00 000",412.242,0.880429,1.98952,0.00536913,9238.90,113.851
"2016-04-02 22:55:00 000",412.030,1.01243,1.99098,0.00676586,9261.09,114.316
"2016-04-02 23:05:00 000",411.665,1.05727,1.99264,0.0105229,9246.32,121.925
"2016-04-02 23:15:00 000",412.001,1.02881,2.00548,0.0106803,9249.76,111.659
"2016-04-02 23:25:00 000",411.169,1.05005,2.00369,0.00813141,9317.76,120.481
"2016-04-02 23:35:00 000",411.471,0.996605,2.00690,0.00588058,9241.95,113.874
"2016-04-02 23:45:00 000",411.981,1.11857,2.01307,0.00533387,9194.65,108.518
"2016-04-02 23:55:00 000",413.322,1.17026,2.00988,0.00581899,9263.51,143.657
"2016-04-03 00:05:00 000",413.624,1.11284,2.00717,0.00623890,9464.48,121.448
"2016-04-03 00:15:00 000",414.016,0.873191,2.00049,0.00540602,9357.36,111.897
"2016-04-03 00:25:00 000",411.646,1.57848,1.99009,0.00560655,9349.80,113.749
"2016-04-03 00:35:00 000",410.018,1.00607,1.99064,0.00461497,9231.07,112.668
"2016-04-03 00:45:00 000",412.479,1.46572,1.98724,0.00409801,9222.33,108.881
"2016-04-03 00:55:00 000",413.630,1.39375,1.99430,0.00527026,9271.41,118.669
"2016-04-03 01:05:00 000",415.984,1.11045,2.00253,0.00736407,9293.43,106.576
"2016-04-03 01:15:00 000",416.193,0.935875,2.00147,0.00492762,9300.20,104.921
"2016-04-03 01:25:00 000",417.245,1.00145,2.00250,0.00412282,9380.29,121.052
"2016-04-03 01:35:00 000",417.309,0.959243,1.99718,0.00434058,9427.32,105.382
"2016-04-03 01:45:00 000",416.432,0.970998,1.99734,0.00389590,9429.37,108.277
"2016-04-03 01:55:00 000",416.918,1.41221,1.99318,0.0122622,9482.50,154.111